Location: Aufkirchen
(47.9603°N, 11.3653°E)
Time: 13:45:08
(UTC+01:00)

Courier 1B Rocket - Pass Details

Date: 28 November 2020
Orbit: 920 x 1202 km, 28.2° (Epoch: 17 January)

Event Time Altitude Azimuth Distance (km) Brightness Sun altitude
Rises 05:54:47 0° 212° (SSW) 4,088 8.1 -17.0°
Reaches altitude 10° 06:00:03 10° 183° (S) 3,112 7.8 -16.1°
Maximum altitude 06:02:32 12° 164° (SSE) 2,966 7.9 -15.7°
Drops below altitude 10° 06:05:00 10° 145° (SE) 3,081 8.4 -15.3°
Sets 06:10:07 0° 116° (ESE) 3,991 10.0 -14.5°
